#timestamp,LO_Frequency,Hit,StdDev 
1661176815.9,286047002.1,N
1661176835.7,286047002.8,N
1661176855.6,286047000.3,N
1661176875.4,286046999.8,N
1661176895.2,286047000.1,N
1661176915.1,286046999.8,N
1661176916.0,286046999.8,N
1661176935.8,286047000.4,N
1661176955.6,286047000.1,N
1661176975.5,286047000.2,N
1661176995.3,286047002.8,N
1661177015.2,286047000.9,N
1661177035.9,286047000.9,N
1661177055.7,286047000.4,N
1661177075.6,286047001.0,N
1661177095.4,286047000.5,N
1661177115.2,286047002.8,N
1661177135.1,286047002.8,N
1661177136.0,286047002.8,N
1661177155.8,286047002.3,N
1661177175.7,286047000.0,N
1661177195.5,286047000.3,N
1661177215.3,286047000.2,N
1661177235.2,286047000.9,N
1661177255.0,286047000.9,N
1661177255.9,286047000.9,N
1661177275.8,286047000.6,N
1661177295.6,286047000.4,N
1661177315.4,286047000.0,N
1661177335.3,286047000.5,N
1661177355.1,286046999.9,N
1661177375.8,286047000.4,N
1661177395.7,286047000.9,N
1661177415.5,286047000.6,N
1661177435.4,286046999.8,N
1661177455.2,286046999.7,N
1661177475.0,286047000.2,N
1661177475.9,286047000.2,N
1661177495.8,286047002.4,N
1661177515.6,286047002.4,N
1661177535.4,286047002.3,N
1661177555.3,286047002.8,N
1661177575.1,286047002.2,N
1661177595.9,286047002.7,N
1661177615.7,286047002.7,N
1661177635.5,286046999.7,N
1661177655.4,286047002.6,N
1661177675.2,286047000.1,N
1661177695.0,286047002.3,N
1661177695.9,286047002.3,N
1661177715.8,286047002.5,N
1661177735.6,286047001.9,N
1661177755.5,286047002.2,N
1661177775.3,286047003.9,Y
1661177795.1,286047003.9,P
1661177815.9,286047004.2,P
1661177835.7,286047004.0,N
1661177855.6,286047003.9,Y
1661177875.4,286046998.1,P
1661177895.2,286046998.2,N
1661177915.1,286046998.1,N
1661177916.0,286046998.1,N
1661177935.8,286046998.6,N
1661177955.6,286046998.2,N
1661177975.5,286046999.2,N
1661177995.3,286046998.4,N
1661178015.2,286047000.8,N
1661178035.9,286047001.2,N
1661178055.7,286046998.5,N
1661178075.6,286046998.8,N
1661178095.4,286046998.7,N
1661178115.2,286046998.5,N
1661178135.1,286046998.2,N
1661178136.0,286046998.2,N
1661178155.8,286047001.2,N
1661178175.7,286047000.6,N
1661178195.5,286047000.0,N
1661178215.3,286047002.3,N
1661178235.2,286047000.1,N
1661178255.0,286047001.0,N
1661178255.9,286047001.0,N
1661178275.8,286047000.8,N
1661178295.6,286047002.8,N
1661178315.4,286047001.7,N
1661178335.3,286047002.3,N
1661178355.1,286047002.2,N
1661178375.8,286046999.8,N
1661178395.7,286047002.3,N
1661178415.5,286046999.9,N
1661178435.4,286047001.9,N
1661178455.2,286047001.8,N
1661178475.0,286047002.3,N
1661178475.9,286047002.3,N
1661178495.8,286047002.1,N
1661178515.6,286047001.6,N
1661178535.4,286046999.7,N
1661178555.3,286047000.6,N
1661178575.1,286047000.0,N
1661178595.9,286047002.5,N
1661178615.7,286047002.4,N
1661178635.5,286047002.7,N
1661178655.4,286047000.5,N
1661178675.2,286047000.6,N
1661178695.0,286047002.1,N
1661178695.9,286047002.1,N
1661178715.8,286047002.6,N
1661178735.6,286046999.8,N
1661178755.5,286047002.6,N
1661178775.3,286047000.2,N
1661178795.1,286047000.3,N
1661178815.9,286047000.5,N
1661178835.7,286047000.4,N
1661178855.6,286047000.4,N
1661178875.4,286047000.4,N
1661178895.2,286047001.0,N
1661178915.1,286046998.2,N
1661178916.0,286046998.2,N
1661178935.8,286047000.8,N
1661178955.6,286047000.5,N
1661178975.5,286047001.0,N
1661178995.3,286047002.7,N
1661179015.2,286047001.3,N
1661179035.9,286047002.0,N
1661179055.7,286047001.4,N
1661179075.6,286047002.7,N
1661179095.4,286047002.7,N
1661179115.2,286047002.0,N
1661179135.1,286047000.1,N
1661179136.0,286047000.1,N
1661179155.8,286047000.3,N
1661179175.7,286046999.7,N
1661179195.5,286047002.3,N
1661179215.3,286047002.6,N
1661179235.2,286046999.9,N
1661179255.0,286047000.1,N
1661179255.9,286047000.1,N
1661179275.8,286046999.8,N
1661179295.6,286047000.1,N
1661179315.4,286047000.2,N
1661179335.3,286046999.9,N
1661179355.1,286047000.3,N
1661179375.8,286047000.6,N
1661179395.7,286047001.0,N
1661179415.5,286047000.3,N
1661179435.4,286046998.5,N
1661179455.2,286047000.5,N
1661179475.0,286046999.9,N
1661179475.9,286046999.9,N
1661179495.8,286047000.8,N
1661179515.6,286046998.1,N
1661179535.4,286046998.5,N
1661179555.3,286046998.5,N
1661179575.1,286046998.8,N
1661179595.9,286046998.8,N
1661179615.7,286046998.7,N
1661179635.5,286046998.1,N
1661179655.4,286046998.3,N
1661179675.2,286046998.3,N
1661179695.0,286046998.9,N
1661179695.9,286046998.9,N
1661179715.8,286046998.4,N
1661179735.6,286046998.7,N
1661179755.5,286046998.7,N
1661179775.3,286047001.0,N
1661179795.1,286047000.0,N
1661179815.9,286047000.5,N
1661179835.7,286047001.0,N
1661179855.6,286047000.8,N
1661179875.4,286047000.3,N
1661179895.2,286047000.6,N
1661179915.1,286047000.4,N
1661179916.0,286047000.4,N
1661179935.8,286046999.7,N
1661179955.7,286047002.8,N
1661179975.5,286047000.2,N
1661179995.3,286046999.7,N
1661180015.2,286047000.1,N
1661180035.9,286047000.0,N
1661180055.7,286047000.1,N
1661180075.6,286047001.0,N
1661180095.4,286047000.7,N
1661180115.3,286047001.0,N
1661180135.1,286047000.5,N
1661180155.8,286047000.3,N
1661180175.7,286046999.8,N
1661180195.5,286047000.0,N
1661180215.4,286047002.5,N
1661180235.2,286047002.6,N
1661180255.0,286047000.0,N
1661180255.9,286047000.0,N
1661180275.8,286047000.4,N
1661180295.6,286047000.7,N
1661180315.4,286047000.9,N
1661180335.3,286047000.5,N
1661180355.1,286047000.0,N
1661180375.9,286047000.1,N
1661180395.7,286047000.1,N
